GTI9010 KSAN-KPDX

Flight info

Callsign GTI9010
Flight time 1h 52m
Altitude 34000
Route PADRZ2 EHF DNOLD GALLO TMBRS4
Aircraft B77L/H-SDE1E2E3FGHIJ2J3J4J5M1RWXY/LB1D1

Departure

Time 2026-05-07 12:53
Airport San Diego International Airport (KSAN)

Arrival

Time 2026-05-07 14:46
Airport Portland International Airport (KPDX)
Time Latitude Longitude Altitude Speed Heading
2026-05-07 12:28 32.73652 -117.18500 26 ft 0 kts 353°
2026-05-07 12:49 32.73647 -117.18499 26 ft 3 kts 353°
2026-05-07 12:49 32.73626 -117.18496 31 ft 3 kts 353°
2026-05-07 12:49 32.73606 -117.18498 26 ft 3 kts 28°
2026-05-07 12:49 32.73596 -117.18512 31 ft 3 kts 93°
2026-05-07 12:50 32.73600 -117.18524 25 ft 0 kts 142°
2026-05-07 12:50 32.73566 -117.18494 26 ft 19 kts 143°
2026-05-07 12:50 32.73456 -117.18402 30 ft 15 kts 159°
2026-05-07 12:50 32.73413 -117.18397 30 ft 9 kts 181°
2026-05-07 12:51 32.73331 -117.18361 29 ft 19 kts 121°
2026-05-07 12:51 32.73281 -117.18188 26 ft 23 kts 105°
2026-05-07 12:51 32.73237 -117.18001 24 ft 24 kts 105°
2026-05-07 12:51 32.73193 -117.17815 26 ft 23 kts 107°
2026-05-07 12:52 32.73146 -117.17626 26 ft 23 kts 108°
2026-05-07 12:52 32.73056 -117.17523 26 ft 13 kts 169°
2026-05-07 12:52 32.73025 -117.17597 24 ft 13 kts 283°
2026-05-07 12:52 32.73107 -117.17939 22 ft 91 kts 286°
2026-05-07 12:53 32.73380 -117.19055 28 ft 188 kts 286°
2026-05-07 12:53 32.73750 -117.20601 936 ft 191 kts 286°
2026-05-07 12:53 32.74249 -117.22046 2173 ft 197 kts 303°
2026-05-07 12:53 32.75123 -117.23453 2854 ft 227 kts 307°
2026-05-07 12:54 32.76077 -117.25067 3372 ft 247 kts 305°
2026-05-07 12:54 32.77059 -117.26792 4161 ft 257 kts 305°
2026-05-07 12:54 32.78074 -117.28572 5026 ft 263 kts 305°
2026-05-07 12:54 32.79109 -117.30380 5968 ft 267 kts 306°
2026-05-07 12:55 32.80172 -117.32217 6865 ft 272 kts 308°
2026-05-07 12:55 32.81322 -117.34033 7711 ft 277 kts 309°
2026-05-07 12:55 32.82517 -117.35860 8543 ft 283 kts 310°
2026-05-07 12:55 32.83734 -117.37721 9365 ft 288 kts 310°
2026-05-07 12:56 32.84552 -117.38977 9912 ft 291 kts 310°
2026-05-07 12:56 32.85795 -117.40891 10747 ft 295 kts 310°
2026-05-07 12:56 32.87079 -117.42875 11271 ft 313 kts 310°
2026-05-07 12:56 32.88462 -117.45013 11488 ft 340 kts 310°
2026-05-07 12:57 32.89960 -117.47337 11696 ft 367 kts 310°
2026-05-07 12:57 32.91556 -117.49820 12148 ft 384 kts 310°
2026-05-07 12:57 32.93194 -117.52371 12876 ft 393 kts 310°
2026-05-07 12:57 32.94860 -117.54970 13750 ft 396 kts 310°
2026-05-07 12:58 32.96538 -117.57587 14652 ft 399 kts 310°
2026-05-07 12:58 32.98230 -117.60228 15518 ft 402 kts 310°
2026-05-07 12:58 32.99932 -117.62886 16349 ft 406 kts 310°
2026-05-07 12:58 33.01652 -117.65574 17128 ft 409 kts 310°
2026-05-07 12:59 33.03368 -117.68258 17849 ft 414 kts 310°
2026-05-07 12:59 33.05141 -117.71029 18596 ft 417 kts 310°
2026-05-07 12:59 33.06937 -117.73704 19291 ft 417 kts 316°
2026-05-07 12:59 33.09057 -117.76069 19915 ft 419 kts 323°
2026-05-07 13:00 33.11342 -117.78253 20570 ft 422 kts 325°
2026-05-07 13:00 33.13658 -117.80432 21221 ft 426 kts 324°
2026-05-07 13:00 33.15958 -117.82686 21854 ft 430 kts 323°
2026-05-07 13:00 33.18245 -117.85001 22466 ft 434 kts 323°
2026-05-07 13:01 33.20554 -117.87356 23072 ft 437 kts 323°
2026-05-07 13:01 33.22899 -117.89676 23657 ft 440 kts 324°
2026-05-07 13:01 33.25286 -117.91994 24219 ft 443 kts 324°
2026-05-07 13:01 33.27685 -117.94313 24790 ft 446 kts 324°
2026-05-07 13:02 33.30116 -117.96667 25310 ft 450 kts 324°
2026-05-07 13:02 33.32554 -117.99037 25830 ft 453 kts 324°
2026-05-07 13:02 33.35006 -118.01430 26307 ft 457 kts 323°
2026-05-07 13:02 33.37476 -118.03847 26794 ft 461 kts 323°
2026-05-07 13:03 33.39967 -118.06289 27284 ft 464 kts 323°
2026-05-07 13:03 33.42470 -118.08745 27754 ft 467 kts 323°
2026-05-07 13:03 33.44991 -118.11219 28188 ft 470 kts 323°
2026-05-07 13:03 33.47533 -118.13716 28613 ft 474 kts 323°
2026-05-07 13:04 33.50089 -118.16230 29026 ft 477 kts 323°
2026-05-07 13:04 33.52660 -118.18759 29416 ft 480 kts 323°
2026-05-07 13:04 33.55243 -118.21301 29784 ft 482 kts 323°
2026-05-07 13:04 33.57877 -118.23803 30140 ft 483 kts 328°
2026-05-07 13:05 33.60803 -118.25755 30470 ft 481 kts 338°
2026-05-07 13:05 33.63854 -118.27294 30813 ft 482 kts 340°
2026-05-07 13:05 33.66948 -118.28839 31140 ft 483 kts 339°
2026-05-07 13:05 33.70034 -118.30457 31477 ft 484 kts 338°
2026-05-07 13:06 33.73100 -118.32138 31874 ft 483 kts 337°
2026-05-07 13:06 33.76149 -118.33833 32324 ft 481 kts 337°
2026-05-07 13:06 33.79191 -118.35458 32811 ft 477 kts 339°
2026-05-07 13:06 33.82251 -118.36991 33211 ft 476 kts 339°
2026-05-07 13:07 33.85308 -118.38493 33593 ft 474 kts 339°
2026-05-07 13:07 33.88357 -118.40000 33934 ft 473 kts 339°
2026-05-07 13:07 33.94472 -118.43072 34080 ft 477 kts 339°
2026-05-07 13:08 34.00594 -118.46069 34069 ft 471 kts 344°
2026-05-07 13:08 34.07018 -118.47314 34065 ft 468 kts 354°
2026-05-07 13:09 34.13494 -118.48122 34073 ft 468 kts 354°
2026-05-07 13:09 34.19972 -118.49017 34074 ft 469 kts 353°
2026-05-07 13:10 34.26451 -118.49997 34072 ft 470 kts 353°
2026-05-07 13:10 34.32946 -118.51005 34079 ft 471 kts 353°
2026-05-07 13:11 34.39423 -118.52011 34084 ft 471 kts 353°
2026-05-07 13:11 34.45887 -118.53011 34098 ft 471 kts 353°
2026-05-07 13:12 34.52387 -118.54018 34110 ft 471 kts 353°
2026-05-07 13:12 34.58894 -118.55027 34130 ft 471 kts 353°
2026-05-07 13:13 34.65402 -118.56040 34145 ft 471 kts 353°
2026-05-07 13:13 34.71899 -118.57049 34164 ft 471 kts 353°
2026-05-07 13:14 34.78401 -118.58062 34175 ft 471 kts 353°
2026-05-07 13:14 34.84858 -118.59071 34181 ft 471 kts 353°
2026-05-07 13:15 34.91355 -118.60088 34187 ft 471 kts 353°
2026-05-07 13:15 34.97860 -118.61110 34186 ft 469 kts 352°
2026-05-07 13:16 35.01011 -118.62100 34178 ft 470 kts 339°
2026-05-07 13:16 35.03883 -118.64023 34175 ft 473 kts 323°
2026-05-07 13:16 35.08838 -118.69254 34188 ft 472 kts 321°
2026-05-07 13:17 35.13890 -118.74440 34186 ft 476 kts 322°
2026-05-07 13:17 35.19004 -118.79618 34176 ft 479 kts 322°
2026-05-07 13:18 35.24140 -118.84827 34157 ft 480 kts 322°
2026-05-07 13:18 35.29269 -118.90046 34142 ft 480 kts 322°
2026-05-07 13:19 35.34395 -118.95273 34127 ft 478 kts 322°
2026-05-07 13:19 35.39462 -119.00448 34113 ft 477 kts 322°
2026-05-07 13:20 35.44579 -119.05681 34107 ft 475 kts 322°
2026-05-07 13:20 35.49857 -119.10373 34100 ft 470 kts 338°
2026-05-07 13:21 35.56054 -119.12669 34115 ft 466 kts 344°
2026-05-07 13:21 35.62281 -119.14929 34124 ft 467 kts 343°
2026-05-07 13:22 35.68519 -119.17278 34129 ft 470 kts 343°
2026-05-07 13:22 35.74776 -119.19662 34132 ft 471 kts 343°
2026-05-07 13:23 35.81043 -119.22057 34130 ft 472 kts 343°
2026-05-07 13:23 35.87329 -119.24458 34129 ft 472 kts 343°
2026-05-07 13:24 35.93597 -119.26855 34128 ft 471 kts 343°
2026-05-07 13:24 35.99855 -119.29253 34134 ft 470 kts 343°
2026-05-07 13:25 36.06105 -119.31651 34136 ft 470 kts 343°
2026-05-07 13:25 36.12307 -119.34034 34139 ft 470 kts 343°
2026-05-07 13:26 36.18543 -119.36433 34138 ft 470 kts 343°
2026-05-07 13:26 36.24789 -119.38842 34130 ft 470 kts 343°
2026-05-07 13:27 36.31030 -119.41250 34130 ft 470 kts 343°
2026-05-07 13:27 36.37275 -119.43668 34130 ft 470 kts 343°
2026-05-07 13:28 36.43516 -119.46089 34129 ft 470 kts 343°
2026-05-07 13:28 36.49769 -119.48517 34125 ft 472 kts 343°
2026-05-07 13:29 36.56054 -119.50959 34117 ft 474 kts 343°
2026-05-07 13:29 36.62352 -119.53414 34112 ft 476 kts 343°
2026-05-07 13:30 36.68677 -119.55883 34105 ft 477 kts 343°
2026-05-07 13:30 36.75028 -119.58365 34110 ft 479 kts 343°
2026-05-07 13:31 36.81380 -119.60854 34120 ft 479 kts 343°
2026-05-07 13:31 36.87755 -119.63351 34121 ft 480 kts 343°
2026-05-07 13:32 36.94132 -119.65856 34119 ft 481 kts 343°
2026-05-07 13:32 37.00523 -119.68372 34123 ft 482 kts 343°
2026-05-07 13:33 37.06913 -119.70892 34123 ft 482 kts 343°
2026-05-07 13:33 37.13318 -119.73423 34131 ft 482 kts 343°
2026-05-07 13:34 37.22891 -119.77211 34142 ft 483 kts 343°
2026-05-07 13:35 37.29312 -119.79759 34142 ft 485 kts 343°
2026-05-07 13:35 37.32536 -119.81040 34257 ft 487 kts 343°
2026-05-07 13:35 37.35772 -119.82327 34614 ft 484 kts 343°
2026-05-07 13:35 37.38968 -119.83600 35022 ft 481 kts 343°
2026-05-07 13:36 37.42160 -119.84872 35305 ft 480 kts 343°
2026-05-07 13:36 37.45346 -119.86142 35522 ft 481 kts 343°
2026-05-07 13:36 37.48547 -119.87420 35795 ft 480 kts 343°
2026-05-07 13:36 37.51728 -119.88691 36053 ft 479 kts 343°
2026-05-07 13:37 37.54920 -119.89966 36100 ft 483 kts 343°
2026-05-07 13:37 37.61343 -119.92537 36177 ft 484 kts 343°
2026-05-07 13:38 37.67717 -119.95093 36157 ft 484 kts 343°
2026-05-07 13:38 37.74139 -119.97674 36150 ft 484 kts 343°
2026-05-07 13:39 37.80560 -120.00258 36151 ft 484 kts 343°
2026-05-07 13:39 37.86987 -120.02851 36156 ft 484 kts 343°
2026-05-07 13:40 37.93409 -120.05448 36172 ft 484 kts 343°
2026-05-07 13:40 37.99833 -120.08045 36167 ft 485 kts 343°
2026-05-07 13:41 38.06262 -120.10654 36164 ft 485 kts 343°
2026-05-07 13:41 38.12689 -120.13264 36168 ft 485 kts 343°
2026-05-07 13:42 38.19118 -120.15881 36172 ft 485 kts 343°
2026-05-07 13:42 38.25504 -120.18485 36173 ft 485 kts 343°
2026-05-07 13:43 38.31923 -120.21108 36179 ft 485 kts 343°
2026-05-07 13:43 38.38349 -120.23737 36186 ft 484 kts 343°
2026-05-07 13:44 38.44770 -120.26370 36203 ft 484 kts 343°
2026-05-07 13:44 38.51178 -120.29003 36209 ft 484 kts 343°
2026-05-07 13:45 38.56504 -120.31193 36215 ft 484 kts 343°
2026-05-07 13:45 38.63963 -120.34269 36213 ft 484 kts 343°
2026-05-07 13:46 38.70373 -120.36917 36211 ft 484 kts 343°
2026-05-07 13:46 38.75740 -120.39138 36218 ft 483 kts 343°
2026-05-07 13:47 38.82097 -120.41774 36226 ft 483 kts 343°
2026-05-07 13:47 38.88490 -120.44430 36232 ft 483 kts 343°
2026-05-07 13:48 38.94880 -120.47088 36232 ft 482 kts 343°
2026-05-07 13:48 39.01271 -120.49752 36246 ft 482 kts 342°
2026-05-07 13:49 39.07654 -120.52419 36245 ft 482 kts 342°
2026-05-07 13:49 39.14040 -120.55091 36256 ft 482 kts 342°
2026-05-07 13:50 39.20389 -120.57753 36252 ft 483 kts 342°
2026-05-07 13:50 39.26815 -120.60452 36252 ft 482 kts 342°
2026-05-07 13:51 39.33162 -120.63124 36252 ft 482 kts 342°
2026-05-07 13:51 39.39546 -120.65816 36249 ft 482 kts 342°
2026-05-07 13:52 39.45929 -120.68515 36248 ft 483 kts 342°
2026-05-07 13:52 39.52316 -120.71217 36243 ft 483 kts 342°
2026-05-07 13:53 39.58710 -120.73929 36224 ft 483 kts 342°
2026-05-07 13:53 39.65099 -120.76645 36215 ft 483 kts 342°
2026-05-07 13:54 39.71488 -120.79367 36220 ft 483 kts 342°
2026-05-07 13:54 39.77882 -120.82095 36213 ft 483 kts 342°
2026-05-07 13:55 39.84271 -120.84826 36210 ft 483 kts 342°
2026-05-07 13:55 39.90659 -120.87562 36208 ft 483 kts 342°
2026-05-07 13:56 39.97039 -120.90300 36210 ft 483 kts 342°
2026-05-07 13:56 40.03414 -120.93043 36212 ft 482 kts 342°
2026-05-07 13:57 40.09750 -120.95772 36213 ft 482 kts 342°
2026-05-07 13:57 40.16116 -120.98520 36209 ft 482 kts 342°
2026-05-07 13:58 40.22489 -121.01278 36208 ft 482 kts 342°
2026-05-07 13:58 40.28856 -121.04037 36220 ft 482 kts 342°
2026-05-07 13:59 40.35226 -121.06804 36219 ft 482 kts 342°
2026-05-07 13:59 40.41609 -121.09581 36211 ft 483 kts 342°
2026-05-07 14:00 40.47995 -121.12326 36212 ft 483 kts 342°
2026-05-07 14:00 40.54413 -121.14952 36215 ft 483 kts 343°
2026-05-07 14:01 40.60839 -121.17567 36216 ft 483 kts 342°
2026-05-07 14:01 40.67262 -121.20204 36211 ft 483 kts 342°
2026-05-07 14:02 40.73676 -121.22856 36220 ft 483 kts 342°
2026-05-07 14:02 40.80089 -121.25512 36213 ft 483 kts 342°
2026-05-07 14:03 40.86510 -121.28178 36205 ft 483 kts 342°
2026-05-07 14:03 40.92928 -121.30847 36194 ft 483 kts 342°
2026-05-07 14:04 40.99338 -121.33521 36194 ft 483 kts 342°
2026-05-07 14:04 41.05740 -121.36195 36192 ft 482 kts 342°
2026-05-07 14:05 41.12088 -121.38852 36196 ft 482 kts 342°
2026-05-07 14:05 41.18524 -121.41552 36193 ft 482 kts 342°
2026-05-07 14:06 41.24869 -121.44217 36187 ft 482 kts 342°
2026-05-07 14:06 41.31259 -121.46906 36200 ft 482 kts 342°
2026-05-07 14:07 41.37654 -121.49606 36199 ft 482 kts 342°
2026-05-07 14:07 41.44045 -121.52309 36191 ft 482 kts 341°
2026-05-07 14:08 41.50429 -121.55015 36195 ft 481 kts 341°
2026-05-07 14:08 41.56816 -121.57725 36195 ft 481 kts 341°
2026-05-07 14:09 41.63197 -121.60439 36197 ft 482 kts 341°
2026-05-07 14:09 41.69597 -121.63167 36195 ft 483 kts 341°
2026-05-07 14:10 41.75996 -121.65902 36193 ft 483 kts 341°
2026-05-07 14:10 41.82561 -121.67855 36200 ft 484 kts 350°
2026-05-07 14:11 41.89228 -121.69155 36186 ft 484 kts 350°
2026-05-07 14:11 41.95850 -121.70479 36182 ft 484 kts 350°
2026-05-07 14:12 42.02507 -121.71851 36188 ft 483 kts 349°
2026-05-07 14:12 42.09146 -121.73225 36181 ft 483 kts 350°
2026-05-07 14:13 42.15794 -121.74514 36181 ft 483 kts 350°
2026-05-07 14:13 42.22454 -121.75787 36187 ft 483 kts 350°
2026-05-07 14:14 42.29112 -121.77078 36187 ft 484 kts 350°
2026-05-07 14:14 42.35781 -121.78378 36190 ft 484 kts 350°
2026-05-07 14:15 42.42455 -121.79685 36184 ft 485 kts 350°
2026-05-07 14:15 42.49134 -121.80997 36190 ft 485 kts 350°
2026-05-07 14:16 42.55821 -121.82314 36183 ft 485 kts 350°
2026-05-07 14:16 42.62449 -121.83619 36189 ft 485 kts 350°
2026-05-07 14:17 42.69124 -121.84934 36178 ft 484 kts 350°
2026-05-07 14:17 42.75780 -121.86252 36176 ft 483 kts 350°
2026-05-07 14:18 42.82425 -121.87571 36175 ft 482 kts 349°
2026-05-07 14:18 42.89057 -121.88890 36181 ft 481 kts 349°
2026-05-07 14:19 42.95683 -121.90212 36183 ft 481 kts 349°
2026-05-07 14:19 43.02305 -121.91533 36183 ft 480 kts 349°
2026-05-07 14:20 43.08912 -121.92852 36185 ft 480 kts 349°
2026-05-07 14:20 43.15517 -121.94176 36186 ft 479 kts 349°
2026-05-07 14:21 43.22078 -121.95496 36187 ft 480 kts 349°
2026-05-07 14:21 43.28673 -121.96826 36198 ft 479 kts 349°
2026-05-07 14:22 43.35278 -121.98158 36199 ft 479 kts 349°
2026-05-07 14:22 43.41873 -121.99492 36197 ft 479 kts 349°
2026-05-07 14:23 43.48468 -122.00829 36189 ft 479 kts 349°
2026-05-07 14:23 43.55061 -122.02168 36206 ft 479 kts 348°
2026-05-07 14:24 43.61670 -122.03514 36208 ft 480 kts 348°
2026-05-07 14:24 43.68274 -122.04861 36208 ft 480 kts 348°
2026-05-07 14:25 43.74879 -122.06213 36200 ft 480 kts 348°
2026-05-07 14:25 43.81393 -122.07545 36034 ft 461 kts 348°
2026-05-07 14:25 43.84538 -122.08186 35574 ft 454 kts 348°
2026-05-07 14:26 43.87677 -122.08830 34659 ft 458 kts 348°
2026-05-07 14:26 43.90851 -122.09485 33619 ft 464 kts 348°
2026-05-07 14:26 43.94053 -122.10151 32552 ft 469 kts 348°
2026-05-07 14:26 43.97293 -122.10825 31478 ft 473 kts 348°
2026-05-07 14:27 44.00558 -122.11500 30558 ft 473 kts 348°
2026-05-07 14:27 44.03796 -122.12169 29916 ft 467 kts 348°
2026-05-07 14:27 44.06989 -122.12825 29329 ft 460 kts 348°
2026-05-07 14:27 44.10102 -122.13465 28726 ft 455 kts 348°
2026-05-07 14:28 44.13225 -122.14109 28075 ft 451 kts 348°
2026-05-07 14:28 44.16318 -122.14752 27414 ft 448 kts 348°
2026-05-07 14:28 44.19392 -122.15392 26731 ft 446 kts 348°
2026-05-07 14:28 44.22452 -122.16031 26088 ft 442 kts 347°
2026-05-07 14:29 44.25482 -122.16661 25394 ft 436 kts 347°
2026-05-07 14:29 44.28428 -122.17268 24189 ft 421 kts 347°
2026-05-07 14:29 44.31303 -122.17863 22587 ft 416 kts 347°
2026-05-07 14:29 44.34171 -122.18464 20929 ft 422 kts 347°
2026-05-07 14:30 44.37101 -122.19085 19997 ft 428 kts 347°
2026-05-07 14:30 44.40041 -122.19703 19313 ft 425 kts 347°
2026-05-07 14:30 44.42948 -122.20311 18773 ft 419 kts 347°
2026-05-07 14:30 44.45804 -122.20908 18214 ft 413 kts 347°
2026-05-07 14:31 44.48645 -122.21504 17581 ft 410 kts 347°
2026-05-07 14:31 44.51445 -122.22092 16911 ft 407 kts 347°
2026-05-07 14:31 44.54242 -122.22676 16403 ft 402 kts 347°
2026-05-07 14:31 44.56979 -122.23261 15991 ft 395 kts 347°
2026-05-07 14:32 44.59693 -122.23833 15589 ft 396 kts 346°
2026-05-07 14:32 44.62437 -122.24414 15227 ft 400 kts 348°
2026-05-07 14:32 44.65182 -122.24983 15004 ft 397 kts 348°
2026-05-07 14:32 44.67909 -122.25554 14887 ft 395 kts 348°
2026-05-07 14:33 44.70618 -122.26129 14691 ft 393 kts 348°
2026-05-07 14:33 44.73310 -122.26722 14602 ft 392 kts 348°
2026-05-07 14:33 44.76031 -122.27296 14463 ft 398 kts 349°
2026-05-07 14:33 44.77847 -122.27670 14103 ft 397 kts 348°
2026-05-07 14:34 44.80575 -122.28249 13625 ft 395 kts 348°
2026-05-07 14:34 44.83281 -122.28815 13142 ft 391 kts 348°
2026-05-07 14:34 44.85963 -122.29377 12629 ft 387 kts 348°
2026-05-07 14:34 44.88612 -122.29948 12099 ft 382 kts 348°
2026-05-07 14:35 44.91226 -122.30512 11527 ft 379 kts 348°
2026-05-07 14:35 44.93818 -122.31066 10947 ft 376 kts 348°
2026-05-07 14:35 44.96377 -122.31612 10452 ft 360 kts 349°
2026-05-07 14:35 44.98729 -122.32110 10329 ft 322 kts 349°
2026-05-07 14:36 45.00829 -122.32554 10234 ft 291 kts 349°
2026-05-07 14:36 45.02767 -122.32968 10214 ft 278 kts 349°
2026-05-07 14:36 45.04684 -122.33382 10107 ft 281 kts 348°
2026-05-07 14:36 45.06635 -122.33802 9754 ft 285 kts 349°
2026-05-07 14:37 45.08564 -122.34216 9366 ft 274 kts 349°
2026-05-07 14:37 45.12239 -122.35005 8648 ft 268 kts 349°
2026-05-07 14:37 45.14115 -122.35409 8356 ft 277 kts 349°
2026-05-07 14:38 45.16041 -122.35826 8013 ft 282 kts 349°
2026-05-07 14:38 45.17933 -122.36234 7635 ft 271 kts 349°
2026-05-07 14:38 45.19789 -122.36633 7347 ft 269 kts 349°
2026-05-07 14:38 45.21635 -122.37033 7046 ft 267 kts 349°
2026-05-07 14:39 45.23473 -122.37428 6731 ft 266 kts 349°
2026-05-07 14:39 45.25295 -122.37823 6444 ft 264 kts 349°
2026-05-07 14:39 45.27110 -122.38214 6143 ft 263 kts 349°
2026-05-07 14:39 45.28924 -122.38604 5850 ft 262 kts 349°
2026-05-07 14:40 45.30723 -122.38992 5552 ft 262 kts 349°
2026-05-07 14:40 45.32532 -122.39384 5162 ft 264 kts 350°
2026-05-07 14:40 45.34356 -122.39781 4764 ft 265 kts 350°
2026-05-07 14:40 45.36173 -122.40173 4332 ft 265 kts 350°
2026-05-07 14:41 45.37966 -122.40560 3896 ft 252 kts 350°
2026-05-07 14:41 45.39659 -122.40927 3569 ft 243 kts 351°
2026-05-07 14:41 45.41358 -122.41296 3406 ft 249 kts 351°
2026-05-07 14:41 45.43069 -122.41668 3405 ft 251 kts 351°
2026-05-07 14:42 45.44787 -122.42041 3370 ft 253 kts 351°
2026-05-07 14:42 45.46536 -122.42422 3325 ft 255 kts 351°
2026-05-07 14:42 45.48292 -122.42804 3273 ft 255 kts 351°
2026-05-07 14:42 45.50032 -122.43181 3134 ft 249 kts 351°
2026-05-07 14:43 45.51754 -122.43590 2561 ft 247 kts 344°
2026-05-07 14:43 45.53172 -122.44801 1870 ft 240 kts 305°
2026-05-07 14:43 45.53811 -122.46885 1702 ft 217 kts 288°
2026-05-07 14:43 45.54387 -122.48823 1502 ft 205 kts 297°
2026-05-07 14:44 45.55025 -122.50547 1298 ft 198 kts 298°
2026-05-07 14:44 45.55675 -122.52250 1228 ft 188 kts 298°
2026-05-07 14:44 45.56278 -122.53815 1036 ft 172 kts 300°
2026-05-07 14:44 45.56814 -122.55192 958 ft 153 kts 300°
2026-05-07 14:45 45.57323 -122.56491 558 ft 147 kts 299°
2026-05-07 14:45 45.57812 -122.57784 172 ft 147 kts 300°
2026-05-07 14:45 45.58294 -122.59008 36 ft 134 kts 300°
2026-05-07 14:45 45.58681 -122.59999 35 ft 87 kts 298°
2026-05-07 14:46 45.58847 -122.60427 31 ft 26 kts 299°
2026-05-07 14:46 45.58816 -122.60648 31 ft 24 kts 228°
2026-05-07 14:46 45.58695 -122.60817 32 ft 24 kts 226°
2026-05-07 14:46 45.58577 -122.60989 32 ft 24 kts 224°
2026-05-07 14:47 45.58455 -122.61162 32 ft 25 kts 225°
2026-05-07 14:47 45.58348 -122.61312 32 ft 12 kts 224°
2026-05-07 14:47 45.58257 -122.61329 32 ft 19 kts 147°
2026-05-07 14:47 45.58149 -122.61163 32 ft 24 kts 136°
2026-05-07 14:48 45.58081 -122.61064 32 ft 8 kts 120°
2026-05-07 14:48 45.58099 -122.61015 31 ft 12 kts 44°
2026-05-07 14:48 45.58112 -122.60996 32 ft 0 kts 44°